OKEAN-4
1 23317U 94066A   05174.35941101  .00000175  00000-0  18830-4 0  6592
2 23317 082.5403 251.6251 0024024 114.3455 246.0260 14.82171610576826
NOAA-14
1 23455U 94089A   05174.51772587  .00000074  00000-0  63703-4 0  6438
2 23455 099.0881 222.9518 0008961 348.4633 011.6337 14.13574834540392
SICH-1
1 23657U 95046A   05174.65278532  .00000085  00000-0  78159-5 0  4647
2 23657 082.5283 032.2093 0025780 100.9040 259.5036 14.81183332528917
NOAA-15
1 25338U 98030A   05174.46184361  .00000118  00000-0  69045-4 0   822
2 25338 098.5116 182.6059 0010301 347.5079 012.5879 14.24519794369640
RESURS
1 25394U 98043A   05173.90288652  .00000003  00000-0  19947-4 0  1172
2 25394 098.5389 242.9522 0002442 126.2351 233.9054 14.24069315361264
FENGYUN1
1 25730U 99025A   05174.51413529 -.00000193  00000-0 -82804-4 0  4456
2 25730 098.6054 176.0467 0015494 083.4332 276.8601 14.11794337315401
OKEAN-0
1 25860U 99039A   05174.68646450 -.00000078  00000-0 -47574-5 0  4676
2 25860 097.7547 200.2972 0001717 132.9409 227.1945 14.73260260318966
NOAA-16
1 26536U 00055A   05174.66601670  .00000006  00000-0  27660-4 0  3974
2 26536 099.0135 133.1482 0011238 053.0591 307.1568 14.12248408244971
NOAA-17
1 27453U 02032A   05174.40332396 -.00000038  00000-0  23636-5 0  4199
2 27453 098.6615 247.8212 0012296 042.1246 318.0876 14.23675547155720
NOAA-18
1 28654U 05018A   05174.87024634 -.00000231  00000-0 -10475-3 0   348
2 28654 098.7451 121.7034 0014848 153.4420 206.7545 14.10854148  4855
HUBBLE
1 20580U 90037B   05174.24706016  .00000450  00000-0  22453-4 0  3642
2 20580 028.4680 229.3027 0003308 333.2409 026.8008 14.99754587631157
UARS
1 21701U 91063B   05174.77680602 -.00000571  00000-0 -22505-4 0  4654
2 21701 056.9784 163.3373 0004790 081.1801 278.9776 15.03845856754486
PO-34
1 25520U 98064B   05173.57427933  .00000583  00000-0  19449-4 0  2098
2 25520 028.4596 276.2740 0005317 284.2380 075.7622 15.16319844367402
ISS
1 25544U 98067A   05174.97573157  .00006644  00000-0  51951-4 0  7589
2 25544 051.6456 226.1024 0004059 300.1010 129.9485 15.73061714376750
WO-39
1 26061U 00004A   03303.41062303  .00002252  00000-0  75720-3 0  9734
2 26061 100.1904 047.3011 0034615 281.6926 078.0378 14.38082544197011
OO-38
1 26063U 00004C   05174.74756309  .00000010  00000-0  23712-4 0  3780
2 26063 100.2176 035.9934 0037142 037.2225 323.1516 14.35722911283231
NO-45
1 26932U 01043D   05174.16488985 -.00000078  00000-0  16547-5 0   610
2 26932 067.0578 212.0572 0006952 242.5737 117.4645 14.29489211194652
